Auburn, AL

3:00 AM CDT on July 25, 2017 (GMT -0500)
Auburn-opelika-pitts

Weather History for KAUO - October, 2012

Change the Weather History Date:

Wednesday, October 24, 2012

  Actual Average Record
Temperature  
Mean Temperature 68 °F -  
Max Temperature 81 °F - 88 °F (1984)
Min Temperature 54 °F - 32 °F (1962)
Degree Days  
Heating Degree Days 0    
Month to date heating degree days 20  
Since 1 July heating degree days 20  
Cooling Degree Days 3    
Month to date cooling degree days 55  
Year to date cooling degree days 2051  
Growing Degree Days 16 (Base 50)    
Moisture  
Dew Point 53 °F    
Average Humidity 58    
Maximum Humidity 82    
Minimum Humidity 37    
Precipitation  
Precipitation 0.00 in - 1.86 in (1997)
Month to date precipitation 0.49  
Year to date precipitation 22.13  
Sea Level Pressure  
Sea Level Pressure 30.10 in    
Wind  
Wind Speed 4 mph (ENE)    
Max Wind Speed 9 mph    
Max Gust Speed -    
Visibility 10 miles    
Events      
T = Trace of Precipitation, MM = Missing Value Source: NWS Daily Summary

Daily Weather History Graph

Daily Weather History Graph

Search for Another Location

Airport or City:

Trip Planner

Search our weather history database for the weather conditions in past years. The results will help you decide how hot, cold, wet, or windy it might be!

Date:

Astronomy

Oct. 24, 2012 Rise Set
Actual Time 6:52 AM CDT 5:58 PM CDT
Civil Twilight 6:27 AM CDT 6:23 PM CDT
Nautical Twilight 5:59 AM CDT 6:52 PM CDT
Astronomical Twilight 5:30 AM CDT 7:20 PM CDT
Moon 3:00 PM CDT (10/24) 2:03 AM CDT (10/24)
Length of Visible Light 11h 55m
Length of Day
11h 05m
Waxing Gibbous, 76% of the Moon is Illuminated
Oct 24
Waxing Gibbous
Oct 29
Full
Nov 6
Last Quarter
Nov 13
New
Nov 20
First Quarter

Hourly Weather History & Observations

Time (CDT) Temp. Heat Index Dew Point Humidity Pressure Visibility Wind Dir Wind Speed Gust Speed Precip Events Conditions
12:15 AM - - - N/A% 30.10 in 10.0 mi East 5.8 mph - N/A   Clear
12:35 AM - - - N/A% 30.10 in 10.0 mi East 5.8 mph - N/A   Clear
12:55 AM - - - N/A% 30.10 in 10.0 mi East 5.8 mph - N/A   Clear
1:15 AM 62.6 °F - 48.2 °F 59% 30.10 in 10.0 mi East 5.8 mph - N/A   Clear
1:35 AM - - - N/A% 30.10 in 10.0 mi East 6.9 mph - N/A   Clear
1:55 AM 62.6 °F - 48.2 °F 59% 30.10 in 10.0 mi East 4.6 mph - N/A   Clear
2:15 AM 62.6 °F - 48.2 °F 59% 30.10 in 10.0 mi East 4.6 mph - N/A   Clear
2:35 AM 60.8 °F - 48.2 °F 63% 30.11 in 10.0 mi East 4.6 mph - N/A   Clear
2:55 AM 60.8 °F - 48.2 °F 63% 30.11 in 10.0 mi East 4.6 mph - N/A   Clear
3:15 AM 60.8 °F - 48.2 °F 63% 30.10 in 10.0 mi East 4.6 mph - N/A   Clear
3:35 AM - - - N/A% 30.10 in 10.0 mi Calm Calm - N/A   Clear
3:55 AM 55.4 °F - 48.2 °F 77% 30.11 in 10.0 mi East 3.5 mph - N/A   Clear
4:15 AM 55.4 °F - 46.4 °F 72% 30.11 in 10.0 mi Calm Calm - N/A   Clear
4:35 AM 53.6 °F - 46.4 °F 77% 30.12 in 10.0 mi ENE 3.5 mph - N/A   Clear
4:55 AM 53.6 °F - 46.4 °F 77% 30.12 in 10.0 mi ENE 3.5 mph - N/A   Clear
5:15 AM 55.4 °F - 48.2 °F 77% 30.13 in 10.0 mi East 3.5 mph - N/A   Clear
5:35 AM 53.6 °F - 48.2 °F 82% 30.13 in 10.0 mi ENE 4.6 mph - N/A   Clear
5:55 AM 55.4 °F - 48.2 °F 77% 30.14 in 10.0 mi NE 6.9 mph - N/A   Clear
6:15 AM 55.4 °F - 48.2 °F 77% 30.14 in 10.0 mi NE 5.8 mph - N/A   Clear
6:35 AM 55.4 °F - 48.2 °F 77% 30.15 in 10.0 mi NE 6.9 mph - N/A   Clear
6:55 AM 55.4 °F - 48.2 °F 77% 30.15 in 10.0 mi NE 6.9 mph - N/A   Clear
7:15 AM 55.4 °F - 48.2 °F 77% 30.15 in 10.0 mi ENE 6.9 mph - N/A   Clear
7:55 AM 59.0 °F - 51.8 °F 77% 30.16 in 10.0 mi NE 5.8 mph - N/A   Clear
8:15 AM 60.8 °F - 51.8 °F 72% 30.17 in 10.0 mi ENE 5.8 mph - N/A   Clear
8:55 AM 66.2 °F - 55.4 °F 68% 30.17 in 10.0 mi NE 4.6 mph - N/A   Clear
9:15 AM 69.8 °F - 57.2 °F 64% 30.17 in 10.0 mi NE 4.6 mph - N/A   Clear
9:35 AM 69.8 °F - 57.2 °F 64% 30.17 in 10.0 mi East 3.5 mph - N/A   Clear
9:55 AM 71.6 °F - 57.2 °F 60% 30.16 in 7.0 mi ESE 4.6 mph - N/A   Clear
10:15 AM 73.4 °F - 57.2 °F 57% 30.16 in 9.0 mi ESE 4.6 mph - N/A   Clear
10:35 AM 75.2 °F - 57.2 °F 53% 30.16 in 9.0 mi East 6.9 mph - N/A   Clear
10:55 AM 75.2 °F - 57.2 °F 53% 30.15 in 10.0 mi Calm Calm - N/A   Clear
11:15 AM 75.2 °F - 57.2 °F 53% 30.14 in 7.0 mi ESE 4.6 mph - N/A   Clear
11:35 AM 78.8 °F - 57.2 °F 47% 30.14 in 10.0 mi NE 6.9 mph - N/A   Clear
11:55 AM 78.8 °F - 57.2 °F 47% 30.13 in 10.0 mi NE 6.9 mph - N/A   Partly Cloudy
12:15 PM 78.8 °F - 57.2 °F 47% 30.12 in 10.0 mi NE 8.1 mph - N/A   Scattered Clouds
12:35 PM 78.8 °F - 55.4 °F 44% 30.11 in 10.0 mi NE 6.9 mph - N/A   Partly Cloudy
12:55 PM 78.8 °F - 55.4 °F 44% 30.10 in 10.0 mi ESE 9.2 mph - N/A   Clear
1:15 PM 78.8 °F - 55.4 °F 44% 30.09 in 10.0 mi ESE 9.2 mph - N/A   Clear
1:35 PM 80.6 °F 80.5 °F 55.4 °F 42% 30.08 in 10.0 mi East 5.8 mph - N/A   Clear
1:55 PM 80.6 °F 80.5 °F 55.4 °F 42% 30.07 in 10.0 mi Calm Calm - N/A   Clear
2:15 PM 80.6 °F 80.5 °F 55.4 °F 42% 30.07 in 10.0 mi ENE 6.9 mph - N/A   Clear
2:35 PM 80.6 °F 80.5 °F 55.4 °F 42% 30.06 in 10.0 mi SE 4.6 mph - N/A   Clear
2:55 PM 80.6 °F 80.3 °F 53.6 °F 39% 30.06 in 10.0 mi ENE 6.9 mph - N/A   Clear
3:15 PM 80.6 °F 80.3 °F 53.6 °F 39% 30.05 in 5.0 mi East 6.9 mph - N/A   Clear
3:35 PM 80.6 °F 80.3 °F 53.6 °F 39% 30.05 in 9.0 mi Calm Calm - N/A   Clear
3:55 PM 80.6 °F 80.3 °F 53.6 °F 39% 30.05 in 10.0 mi Calm Calm - N/A   Clear
4:15 PM 80.6 °F - 51.8 °F 37% 30.05 in 10.0 mi Calm Calm - N/A   Clear
4:35 PM 80.6 °F - 51.8 °F 37% 30.05 in 10.0 mi Calm Calm - N/A   Clear
4:55 PM 80.6 °F - 51.8 °F 37% 30.05 in 10.0 mi Calm Calm - N/A   Clear
5:15 PM 78.8 °F - 51.8 °F 39% 30.05 in 10.0 mi East 5.8 mph - N/A   Clear
5:35 PM 77.0 °F - 53.6 °F 44% 30.05 in 10.0 mi ESE 3.5 mph - N/A   Clear
5:55 PM 75.2 °F - 51.8 °F 44% 30.05 in 10.0 mi ENE 5.8 mph - N/A   Clear
6:15 PM 73.4 °F - 51.8 °F 47% 30.05 in 10.0 mi ENE 4.6 mph - N/A   Clear
6:35 PM 71.6 °F - 51.8 °F 50% 30.06 in 10.0 mi ENE 4.6 mph - N/A   Clear
6:55 PM 69.8 °F - 51.8 °F 53% 30.06 in 10.0 mi ENE 4.6 mph - N/A   Clear
7:15 PM 69.8 °F - 53.6 °F 56% 30.06 in 10.0 mi ENE 5.8 mph - N/A   Clear
7:35 PM 66.2 °F - 51.8 °F 60% 30.06 in 10.0 mi ENE 4.6 mph - N/A   Clear
7:55 PM 66.2 °F - 51.8 °F 60% 30.06 in 10.0 mi SSE 3.5 mph - N/A   Clear
8:15 PM 66.2 °F - 53.6 °F 64% 30.06 in 10.0 mi ESE 3.5 mph - N/A   Clear
8:35 PM 66.2 °F - 53.6 °F 64% 30.06 in 10.0 mi East 5.8 mph - N/A   Clear
8:55 PM 66.2 °F - 53.6 °F 64% 30.07 in 10.0 mi East 4.6 mph - N/A   Clear
9:15 PM 64.4 °F - 53.6 °F 68% 30.07 in 10.0 mi East 4.6 mph - N/A   Clear
9:35 PM 64.4 °F - 53.6 °F 68% 30.07 in 10.0 mi ENE 5.8 mph - N/A   Clear
9:55 PM 66.2 °F - 53.6 °F 64% 30.07 in 10.0 mi ENE 5.8 mph - N/A   Clear
10:15 PM 64.4 °F - 53.6 °F 68% 30.08 in 10.0 mi ENE 4.6 mph - N/A   Clear
10:35 PM 64.4 °F - 53.6 °F 68% 30.08 in 10.0 mi NE 5.8 mph - N/A   Clear
10:55 PM 64.4 °F - 53.6 °F 68% 30.07 in 10.0 mi East 3.5 mph - N/A   Clear
11:15 PM 64.4 °F - 53.6 °F 68% 30.07 in 10.0 mi ENE 4.6 mph - N/A   Clear
11:35 PM 62.6 °F - 53.6 °F 72% 30.07 in 10.0 mi East 4.6 mph - N/A   Clear
11:55 PM 64.4 °F - 53.6 °F 68% 30.06 in 10.0 mi East 4.6 mph - N/A   Clear